This demonstration page uses our WeatherBlox Daily Observations layout. Learn more.

38.89511, -77.03637

Hourly Observations for October 9, 2018

Temp ( °F °C ) Dew Point ( °F °C ) Humidity (%) Winds ( mph kmh ) Pressure ( in mb ) Visibility ( mi km ) Precip ( " mm )
12:52 am 00:52 Mostly Clear 73 22.8 69 20.6 87 87 Calm 30.35 1028 10 16.0934 0 0
1:43 am 01:43 Mostly Cloudy 72 22.2 69 20.6 91 91 Calm 30.33 1027 10 16.0934 0 0
1:52 am 01:52 Mostly Cloudy 72 22.2 69 20.6 91 91 Calm 30.34 1028 10 16.0934 0 0
2:04 am 02:04 Cloudy 73 22.8 69 20.6 87 87 Calm 30.33 1027 10 16.0934 0 0
2:52 am 02:52 Cloudy 73 22.8 69 20.6 87 87 Calm 30.33 1027 10 16.0934 0 0
3:08 am 03:08 Cloudy 73 22.8 69 20.6 87 87 Calm 30.33 1027 10 16.0934 0 0
3:52 am 03:52 Cloudy 73 22.8 69 20.6 87 87 Calm 30.32 1027 10 16.0934 0 0
4:33 am 04:33 Cloudy 74 23.3 69 20.6 85 85 ESE 3 6 30.33 1027 10 16.0934 0 0
4:52 am 04:52 Cloudy 73 22.8 69 20.6 87 87 Calm 30.32 1027 10 16.0934 0 0
5:04 am 05:04 Cloudy 73 22.8 69 20.6 87 87 Calm 30.33 1027 10 16.0934 0 0
5:37 am 05:37 Cloudy 74 23.3 69 20.6 85 85 Calm 30.33 1027 10 16.0934 0 0
5:52 am 05:52 Cloudy with Light Rain 73 22.8 70 21.1 90 90 Calm 30.32 1027 10 16.0934 0 0.0254
6:12 am 06:12 Cloudy 73 22.8 70 21.1 90 90 Calm 30.33 1027 10 16.0934 0 0.0254
6:21 am 06:21 Cloudy 74 23.3 70 21.1 88 88 Calm 30.33 1027 10 16.0934 0 0.0254
6:41 am 06:41 Cloudy 74 23.3 70 21.1 88 88 Calm 30.33 1027 10 16.0934 0 0.0254
6:52 am 06:52 Cloudy 73 22.8 70 21.1 90 90 Calm 30.32 1027 10 16.0934 0 0.0254
7:14 am 07:14 Cloudy 73 22.8 70 21.1 90 90 E 3 6 30.33 1027 10 16.0934 0 0
7:25 am 07:25 Mostly Cloudy 73 22.8 70 21.1 90 90 E 3 6 30.33 1027 9 14.48406 0 0
7:33 am 07:33 Mostly Cloudy 73 22.8 70 21.1 90 90 Calm 30.33 1027 9 14.48406 0 0
7:52 am 07:52 Mostly Cloudy 73 22.8 70 21.1 90 90 Calm 30.32 1027 9 14.48406 0 0
7:59 am 07:59 Mostly Cloudy 73 22.8 70 21.1 90 90 Calm 30.33 1027 9 14.48406 0 0
8:52 am 08:52 Cloudy 74 23.3 70 21.1 88 88 Calm 30.33 1027 9 14.48406 0 0
9:16 am 09:16 Cloudy 75 23.9 71 21.7 88 88 Calm 30.33 1027 10 16.0934 0 0
9:50 am 09:50 Mostly Cloudy 75 24 72 22 89 89 S 6 9 30.33 1027 10 16.0934 0 0
9:52 am 09:52 Mostly Cloudy 76 24.4 71 21.7 85 85 S 6 9 30.33 1027 10 16.0934 0 0
10:47 am 10:47 Partly Cloudy 77 25 72 22 83 83 SSE 6 9 30.33 1027 10 16.0934 0 0
10:52 am 10:52 Partly Cloudy 77 25 70 21.1 79 79 SSE 8 13 30.32 1027 10 16.0934 0 0
11:52 am 11:52 Partly Cloudy 80 26.7 69 20.6 69 69 SSE 6 9 30.31 1027 10 16.0934 0 0
12:52 pm 12:52 Mostly Cloudy 82 27.8 69 20.6 65 65 SSE 8 13 30.29 1026 10 16.0934 0 0
1:52 pm 13:52 Mostly Cloudy 81 27.2 69 20.6 67 67 SSE 8 13 30.27 1025 10 16.0934 0 0
2:52 pm 14:52 Mostly Cloudy 81 27.2 68 20 65 65 SSE 7 11 30.25 1024 10 16.0934 0 0
3:52 pm 15:52 Mostly Cloudy 82 27.8 68 20 63 63 S 6 9 30.24 1024 10 16.0934 0 0
4:52 pm 16:52 Mostly Cloudy 82 27.8 68 20 63 63 S 6 9 30.22 1023 10 16.0934 0 0
5:52 pm 17:52 Mostly Cloudy 80 26.7 70 21.1 71 71 E 5 7 30.21 1023 10 16.0934 0 0
6:22 pm 18:22 Mostly Cloudy 79 26.1 70 21.1 74 74 ESE 7 11 30.21 1023 10 16.0934 0 0
6:52 pm 18:52 Mostly Cloudy 78 25.6 70 21.1 76 76 ESE 7 11 30.21 1023 10 16.0934 0 0
7:52 pm 19:52 Mostly Cloudy 77 25 69 20.6 77 77 SE 6 9 30.21 1023 10 16.0934 0 0
8:52 pm 20:52 Mostly Cloudy 76 24.4 69 20.6 79 79 SSE 5 7 30.22 1023 10 16.0934 0 0
9:52 pm 21:52 Mostly Cloudy 75 23.9 69 20.6 82 82 S 7 11 30.22 1023 10 16.0934 0 0
10:52 pm 22:52 Cloudy 75 23.9 70 21.1 84 84 SE 6 9 30.21 1023 10 16.0934 0 0
11:52 pm 23:52 Cloudy 74 23.3 70 21.1 88 88 Calm 30.21 1023 10 16.0934 0 0

Powered by AerisWeather